Weather History for Fargo, ND

Change the Weather History Date:

Thursday, February 14, 2013

  Actual Average Record
Temperature  
Mean Temperature 12 °F 14 °F  
Max Temperature 20 °F 23 °F 43 °F (2002)
Min Temperature 3 °F 5 °F -33 °F (1881)
Degree Days  
Heating Degree Days 53 51  
Month to date heating degree days 707 741  
Since 1 July heating degree days 5840 6009  
Cooling Degree Days 0 0  
Month to date cooling degree days 0 0  
Year to date cooling degree days 0 0  
Moisture  
Dew Point 6 °F    
Average Humidity 78    
Maximum Humidity 88    
Minimum Humidity 67    
Precipitation  
Precipitation 0.00 in 0.02 in 0.36 in (1915)
Month to date precipitation 1.18 0.24  
Year to date precipitation 2.15 0.94  
Snow  
Snow 0.00 in 0.30 in 6.20 in (1995)
Month to date snowfall 13.9 3.2  
Since 1 July snowfall 36.6 34.2  
Snow Depth 16.00 in    
Sea Level Pressure  
Sea Level Pressure 30.14 in    
Wind  
Wind Speed 12 mph (NNW)    
Max Wind Speed 22 mph    
Max Gust Speed 24 mph    
Visibility 10 miles    
Events      
T = Trace of Precipitation, MM = Missing Value Source: NWS Daily Summary

Daily Weather History Graph

Daily Weather History Graph

Search for Another Location

Airport:

Trip Planner

Search our weather history database for the weather conditions in past years. The results will help you decide how hot, cold, wet, or windy it might be!

Date:

Astronomy

Feb. 14, 2013 Rise Set
Actual Time 7:32 AM CST 5:50 PM CST
Civil Twilight 7:01 AM CST 6:22 PM CST
Nautical Twilight 6:25 AM CST 6:57 PM CST
Astronomical Twilight 5:50 AM CST 7:33 PM CST
Moon 9:13 AM CST (2/14) 11:18 PM CST (2/14)
Length of Visible Light 11h 20m
Length of Day
10h 18m
Waxing Crescent, 22% of the Moon is Illuminated
Feb 14
Waxing Crescent
Feb 17
First Quarter
Feb 25
Full
Mar 4
Last Quarter
Mar 11
New

Hourly Weather History & Observations

Time (CST) Temp. Windchill Dew Point Humidity Pressure Visibility Wind Dir Wind Speed Gust Speed Precip Events Conditions
12:53 AM 16.0 °F 10.4 °F 12.9 °F 88% 29.84 in 7.0 mi NNW 3.5 mph - N/A   Overcast
1:53 AM 18.0 °F 8.7 °F 12.9 °F 81% 29.84 in 8.0 mi NW 6.9 mph - N/A   Overcast
2:53 AM 16.0 °F 3.6 °F 12.0 °F 84% 29.87 in 7.0 mi NNW 10.4 mph - N/A   Mostly Cloudy
3:53 AM 18.0 °F 6.9 °F 12.9 °F 81% 29.88 in 8.0 mi North 9.2 mph - N/A   Overcast
4:53 AM 19.9 °F 6.7 °F 12.9 °F 74% 29.89 in 10.0 mi North 13.8 mph - N/A   Overcast
5:53 AM 18.0 °F 4.8 °F 12.0 °F 78% 29.93 in 10.0 mi North 12.7 mph - N/A   Overcast
6:53 AM 17.1 °F 3.0 °F 10.0 °F 74% 29.96 in 10.0 mi North 13.8 mph - N/A   Overcast
7:53 AM 12.9 °F -2.2 °F 7.0 °F 77% 30.01 in 10.0 mi North 13.8 mph - N/A   Mostly Cloudy
8:53 AM 12.0 °F -5.6 °F 5.0 °F 73% 30.06 in 10.0 mi North 18.4 mph - N/A   Mostly Cloudy
9:53 AM 12.0 °F -5.1 °F 5.0 °F 73% 30.10 in 10.0 mi North 17.3 mph - N/A   Mostly Cloudy
10:53 AM 12.0 °F -6.5 °F 3.9 °F 70% 30.14 in 10.0 mi North 20.7 mph - N/A   Partly Cloudy
11:53 AM 10.9 °F -7.5 °F 5.0 °F 77% 30.18 in 10.0 mi NNW 19.6 mph - N/A   Clear
12:53 PM 12.0 °F -6.0 °F 5.0 °F 73% 30.20 in 10.0 mi NNW 19.6 mph - N/A   Clear
1:53 PM 12.9 °F -4.4 °F 5.0 °F 71% 30.22 in 10.0 mi NNW 18.4 mph - N/A   Clear
2:53 PM 14.0 °F -2.0 °F 6.1 °F 71% 30.24 in 10.0 mi NNW 16.1 mph - N/A   Clear
3:53 PM 12.9 °F -0.9 °F 5.0 °F 71% 30.26 in 10.0 mi NNW 11.5 mph - N/A   Clear
4:53 PM 12.9 °F 3.8 °F 5.0 °F 71% 30.27 in 10.0 mi WNW 5.8 mph - N/A   Clear
5:53 PM 9.0 °F 0.6 °F 3.0 °F 77% 30.30 in 10.0 mi WNW 4.6 mph - N/A   Clear
6:53 PM 3.9 °F -8.2 °F -0.9 °F 80% 30.32 in 10.0 mi West 6.9 mph - N/A   Scattered Clouds
7:53 PM 3.0 °F -10.5 °F -2.0 °F 80% 30.32 in 10.0 mi West 8.1 mph - N/A   Overcast
8:53 PM 5.0 °F -9.1 °F -0.9 °F 76% 30.31 in 10.0 mi West 9.2 mph - N/A   Scattered Clouds
9:53 PM 6.1 °F -6.8 °F -0.9 °F 73% 30.32 in 10.0 mi West 8.1 mph - N/A   Overcast
10:53 PM 7.0 °F -4.5 °F 1.0 °F 77% 30.32 in 10.0 mi West 6.9 mph - N/A   Overcast
11:53 PM 5.0 °F -5.6 °F -0.0 °F 80% 30.33 in 10.0 mi West 5.8 mph - N/A   Scattered Clouds